Weather History for Grosse Ile, MI

Change the Weather History Date:

Monday, February 25, 2013

  Actual Average (KDTW) Record (KDTW)
Temperature  
Mean Temperature 29 °F 30 °F  
Max Temperature 37 °F 38 °F 66 °F (1957)
Min Temperature 21 °F 23 °F -2 °F (1900)
Degree Days  
Heating Degree Days 36 35  
Month to date heating degree days 931  
Since 1 July heating degree days 4451  
Cooling Degree Days 0 0  
Month to date cooling degree days 0  
Year to date cooling degree days 0  
Moisture  
Dew Point 24 °F    
Average Humidity 78    
Maximum Humidity 93    
Minimum Humidity 60    
Precipitation  
Precipitation 0.00 in 0.08 in 0.91 in (1918)
Month to date precipitation 1.79  
Year to date precipitation 3.75  
Snow  
Snow 0.00 in 0.40 in 9.30 in (1965)
Month to date snowfall 9.2  
Since 1 July snowfall 32.9  
Snow Depth -    
Sea Level Pressure  
Sea Level Pressure 30.16 in    
Wind  
Wind Speed 2 mph (SSE)    
Max Wind Speed 9 mph    
Max Gust Speed -    
Visibility 8 miles    
Events      
T = Trace of Precipitation, MM = Missing Value Source: NWS Daily Summary

Daily Weather History Graph

Daily Weather History Graph

Search for Another Location

Airport:

Trip Planner

Search our weather history database for the weather conditions in past years. The results will help you decide how hot, cold, wet, or windy it might be!

Date:

Astronomy

Feb. 25, 2013 Rise Set
Actual Time 7:13 AM EST 6:18 PM EST
Civil Twilight 6:45 AM EST 6:46 PM EST
Nautical Twilight 6:13 AM EST 7:18 PM EST
Astronomical Twilight 5:40 AM EST 7:51 PM EST
Moon 6:31 PM EST (2/25) 6:42 AM EST (2/25)
Length of Visible Light 12h 00m
Length of Day
11h 04m
Full, 100% of the Moon is Illuminated
Feb 25
Full
Feb 25
Full
Mar 4
Last Quarter
Mar 11
New
Mar 19
First Quarter

Hourly Weather History & Observations

Time (EST) Temp. Windchill Dew Point Humidity Pressure Visibility Wind Dir Wind Speed Gust Speed Precip Events Conditions
12:15 AM 28.4 °F - 24.8 °F 86% 30.14 in 10.0 mi Calm Calm - N/A   Clear
12:34 AM 28.4 °F - 24.8 °F 86% 30.14 in 10.0 mi Calm Calm - N/A   Clear
12:54 AM 28.4 °F - 24.8 °F 86% 30.14 in 10.0 mi Calm Calm - N/A   Clear
1:14 AM 28.4 °F 24.6 °F 24.8 °F 86% 30.15 in 10.0 mi West 3.5 mph - N/A   Clear
1:34 AM 24.8 °F - 21.2 °F 86% 30.15 in 10.0 mi Calm Calm - N/A   Clear
1:54 AM 24.8 °F - 21.2 °F 86% 30.15 in 10.0 mi Calm Calm - N/A   Clear
2:14 AM 26.6 °F - 21.2 °F 80% 30.15 in 10.0 mi Calm Calm - N/A   Clear
2:34 AM 26.6 °F - 23.0 °F 86% 30.15 in 10.0 mi Calm Calm - N/A   Clear
2:54 AM 24.8 °F - 21.2 °F 86% 30.15 in 7.0 mi Calm Calm - N/A   Clear
3:14 AM 26.6 °F - 23.0 °F 86% 30.15 in 10.0 mi Calm Calm - N/A   Clear
3:34 AM 24.8 °F - 21.2 °F 86% 30.14 in 7.0 mi Calm Calm - N/A   Clear
3:54 AM 26.6 °F - 23.0 °F 86% 30.14 in 7.0 mi Calm Calm - N/A   Clear
4:14 AM 23.0 °F - 21.2 °F 93% 30.14 in 5.0 mi Calm Calm - N/A   Clear
4:34 AM 24.8 °F - 21.2 °F 86% 30.15 in 4.0 mi Calm Calm - N/A   Clear
4:54 AM 24.8 °F - 21.2 °F 86% 30.15 in 5.0 mi Calm Calm - N/A   Clear
5:14 AM 23.0 °F - 19.4 °F 86% 30.15 in 4.0 mi Calm Calm - N/A   Clear
5:34 AM 21.2 °F - 19.4 °F 93% 30.15 in 3.0 mi Calm Calm - N/A   Clear
5:54 AM 24.8 °F - 21.2 °F 86% 30.15 in 4.0 mi Calm Calm - N/A   Clear
6:14 AM 23.0 °F - 21.2 °F 93% 30.16 in 3.0 mi Calm Calm - N/A   Clear
6:34 AM 23.0 °F - 21.2 °F 93% 30.18 in 3.0 mi Calm Calm - N/A   Clear
6:54 AM 21.2 °F - 17.6 °F 86% 30.18 in 4.0 mi Calm Calm - N/A   Clear
7:14 AM 23.0 °F - 21.2 °F 93% 30.19 in 4.0 mi Calm Calm - N/A   Clear
7:34 AM 21.2 °F - 17.6 °F 86% 30.20 in 1.8 mi Calm Calm - N/A   Mist
7:54 AM 21.2 °F - 19.4 °F 93% 30.20 in 2.0 mi Calm Calm - N/A   Clear
8:14 AM 24.8 °F - 21.2 °F 86% 30.21 in 2.5 mi Calm Calm - N/A   Clear
8:34 AM 26.6 °F - 24.8 °F 93% 30.21 in 3.0 mi Calm Calm - N/A   Clear
8:54 AM 28.4 °F - 26.6 °F 93% 30.21 in 5.0 mi Calm Calm - N/A   Clear
9:14 AM 28.4 °F - 24.8 °F 86% 30.21 in 5.0 mi Calm Calm - N/A   Clear
9:34 AM 28.4 °F - 26.6 °F 93% 30.21 in 5.0 mi Calm Calm - N/A   Mostly Cloudy
9:54 AM 30.2 °F - 26.6 °F 86% 30.21 in 5.0 mi Calm Calm - N/A   Overcast
10:14 AM 32.0 °F 27.5 °F 26.6 °F 80% 30.20 in 7.0 mi East 4.6 mph - N/A   Scattered Clouds
10:34 AM 33.8 °F - 26.6 °F 75% 30.20 in 10.0 mi Calm Calm - N/A   Clear
10:54 AM 33.8 °F 29.6 °F 28.4 °F 81% 30.20 in 7.0 mi South 4.6 mph - N/A   Clear
11:14 AM 35.6 °F 32.8 °F 28.4 °F 75% 30.20 in 7.0 mi South 3.5 mph - N/A   Clear
11:34 AM 33.8 °F 28.6 °F 26.6 °F 75% 30.21 in 10.0 mi South 5.8 mph - N/A   Clear
11:54 AM 35.6 °F 30.7 °F 26.6 °F 70% 30.22 in 10.0 mi South 5.8 mph - N/A   Clear
12:14 PM 35.6 °F 29.9 °F 26.6 °F 70% 30.20 in 10.0 mi South 6.9 mph - N/A   Clear
12:34 PM 35.6 °F 30.7 °F 26.6 °F 70% 30.19 in 10.0 mi South 5.8 mph - N/A   Clear
12:54 PM 37.4 °F 33.8 °F 24.8 °F 60% 30.19 in 10.0 mi South 4.6 mph - N/A   Clear
1:14 PM 37.4 °F 32.8 °F 26.6 °F 65% 30.18 in 10.0 mi South 5.8 mph - N/A   Clear
1:34 PM 35.6 °F 30.7 °F 26.6 °F 70% 30.18 in 10.0 mi South 5.8 mph - N/A   Clear
1:54 PM 35.6 °F 31.7 °F 24.8 °F 65% 30.16 in 10.0 mi SSE 4.6 mph - N/A   Clear
2:14 PM 37.4 °F 33.8 °F 24.8 °F 60% 30.15 in 10.0 mi South 4.6 mph - N/A   Clear
2:34 PM 35.6 °F 31.7 °F 26.6 °F 70% 30.14 in 10.0 mi South 4.6 mph - N/A   Clear
2:54 PM 35.6 °F 30.7 °F 26.6 °F 70% 30.14 in 10.0 mi South 5.8 mph - N/A   Clear
3:14 PM 35.6 °F 29.9 °F 26.6 °F 70% 30.14 in 10.0 mi South 6.9 mph - N/A   Clear
3:34 PM 35.6 °F 30.7 °F 26.6 °F 70% 30.15 in 10.0 mi South 5.8 mph - N/A   Clear
3:54 PM 35.6 °F 31.7 °F 26.6 °F 70% 30.15 in 10.0 mi South 4.6 mph - N/A   Clear
4:14 PM 35.6 °F 29.9 °F 26.6 °F 70% 30.15 in 10.0 mi South 6.9 mph - N/A   Clear
4:34 PM 35.6 °F 29.9 °F 26.6 °F 70% 30.15 in 10.0 mi South 6.9 mph - N/A   Clear
4:54 PM 35.6 °F 29.9 °F 24.8 °F 65% 30.14 in 10.0 mi SSE 6.9 mph - N/A   Clear
5:14 PM 35.6 °F 31.7 °F 26.6 °F 70% 30.14 in 10.0 mi SSE 4.6 mph - N/A   Clear
5:34 PM 35.6 °F 31.7 °F 24.8 °F 65% 30.13 in 10.0 mi SSE 4.6 mph - N/A   Clear
5:54 PM 33.8 °F 29.6 °F 24.8 °F 70% 30.13 in 10.0 mi ESE 4.6 mph - N/A   Clear
9:13 PM 30.2 °F 23.4 °F 21.2 °F 69% 30.11 in 10.0 mi East 6.9 mph - N/A   Clear
9:14 PM 30.2 °F 23.4 °F 21.2 °F 69% 30.11 in 10.0 mi East 6.9 mph - N/A   Clear
9:34 PM 30.2 °F 23.4 °F 21.2 °F 69% 30.10 in 10.0 mi East 6.9 mph - N/A   Clear
9:54 PM 30.2 °F 22.6 °F 21.2 °F 69% 30.09 in 10.0 mi ENE 8.1 mph - N/A   Clear
10:14 PM 30.2 °F 21.9 °F 21.2 °F 69% 30.08 in 10.0 mi ENE 9.2 mph - N/A   Clear
10:34 PM 30.2 °F 24.3 °F 21.2 °F 69% 30.09 in 10.0 mi ENE 5.8 mph - N/A   Clear
10:54 PM 30.2 °F 24.3 °F 21.2 °F 69% 30.11 in 10.0 mi ENE 5.8 mph - N/A   Clear
11:14 PM 30.2 °F 24.3 °F 21.2 °F 69% 30.10 in 10.0 mi ENE 5.8 mph - N/A   Clear
11:34 PM 28.4 °F 24.6 °F 21.2 °F 74% 30.11 in 10.0 mi East 3.5 mph - N/A   Clear
11:54 PM 28.4 °F 24.6 °F 21.2 °F 74% 30.11 in 10.0 mi East 3.5 mph - N/A   Clear